Location: Pasarilla del Rebollar
(40.6790°N, 5.0062°W)
Time: 10:41:37
(UTC+00:00)

SL-16 R/B - Pass Details

Date: 22 April 2026
Orbit: 841 x 845 km, 71.0° (Epoch: 20 May)

Event Time Altitude Azimuth Distance (km) Brightness Sun altitude
Rises 01:16:00 0° 346° (NNW) 3,412 6.1 -35.5°
Reaches altitude 10° 01:18:53 10° 359° (N) 2,473 5.3 -35.4°
Maximum altitude 01:23:33 26° 54° (NE) 1,621 4.0 -35.1°
Enters shadow 01:25:04 23° 79° (E) 1,730 4.0 -35.0°
